Tenerife, El Salvador

12:56 AM WEST en Septiembre 19, 2018 (GMT +0100)
Tenerife

Tiempo Historia de GCXO - Junio, 2018

Change the Weather History Date:

Jueves, Junio 14, 2018

  Actual Average Record
Temperature  
Temperatura media 60 ° F -  
Temperatura máxima 65 ° F 70 ° F 82 ° F (2011)
Temperatura mínima 56 ° F 57 ° F 51 ° F (2008)
Degree Days  
Grados día de calefacción 4    
Growing Degree Days 10 (Base 50)    
Moisture  
Punto de rocío 55 ° F    
Average Humidity 84    
Maximum Humidity 100    
Minimum Humidity 64    
Precipitación  
Precipitación 0.00 pul - - ()
Presión al nivel del mar  
Presión al nivel del mar 30.17 pul    
Viento  
Velocidad del viento 19 mph ()    
Velocidad máxima del viento 30 mph    
Max Gust Speed 39 mph    
Visibilidad 7.4 Millas    
Eventos Niebla , Lluvia    
Averages and records for this station are not official NWS values.
T = Trace of Precipitation, MM = Missing Value Source: Averaged Metar Reports

Daily Weather History Graph

Daily Weather History Graph

Search for Another Location

Airport or City:

Astronomía

Jun. 14, 2018 Salida Puesta
Hora real 7:07 AM WEST 9:03 PM WEST
Crepúsculo civil 6:40 AM WEST 9:30 PM WEST
Crepúsculo náutico 6:08 AM WEST 10:03 PM WEST
Crepúsculo astronómico 5:33 AM WEST 10:37 PM WEST
Luna 7:48 AM WEST (6/14) 9:55 PM WEST (6/14)
Horas de luz 14h 50m
Horas de luz
13h 56m
Luna nueva, 1% of the Moon is Illuminated
Jun 14
Luna nueva
Jun 20
Cuarto creciente
Jun 28
Luna llena
Jul 6
Cuarto menguante
Jul 13
Nueva

Hourly Weather History & Observations

Hora (WEST) Temp. Punto de rocío Humedad Presión Visibilidad Wind Dir Velocidad del viento Velocidad de ráfagas Precip Eventos Condiciones
12:00 AM 59.0 ° F 57.2 ° F 94% 30.24 pul 6.2 mi NO 20.7 mph - N/A   Muy nublado
1:00 AM 58 ° F 54 ° F 84% 30.20 pul 19 mi NO 16.1 mph - -  
1:30 AM 59.0 ° F 55.4 ° F 88% 30.21 pul 6.2 mi NO 17.3 mph - N/A   Muy nublado
2:00 AM 59.0 ° F 55.4 ° F 88% 30.21 pul 6.2 mi NO 19.6 mph - N/A Niebla Bancos de niebla
2:30 AM 57.2 ° F 55.4 ° F 94% 30.21 pul - NO 16.1 mph - N/A Lluvia Lluvia débil
3:00 AM 57.2 ° F 55.4 ° F 94% 30.18 pul 6.2 mi NNO 13.8 mph - N/A Niebla Bancos de niebla
3:30 AM 57.2 ° F 55.4 ° F 94% 30.18 pul 6.2 mi NNO 17.3 mph - N/A Niebla Bancos de niebla
4:00 AM 57 ° F 52 ° F 79% 30.16 pul 19 mi NO 18.4 mph - -  
4:00 AM 57.2 ° F 51.8 ° F 82% 30.18 pul 6.2 mi NO 18.4 mph - N/A   Parcialmente nublado
4:30 AM 57.2 ° F 53.6 ° F 88% 30.18 pul 6.2 mi NNO 16.1 mph - N/A   Muy nublado
5:00 AM 57.2 ° F 53.6 ° F 88% 30.18 pul 6.2 mi NNO 17.3 mph - N/A   Nublado
5:30 AM 57.2 ° F 55.4 ° F 94% 30.15 pul 6.2 mi NO 16.1 mph - N/A   Nublado
6:00 AM 57.2 ° F 55.4 ° F 94% 30.15 pul 6.2 mi NO 17.3 mph - N/A   Muy nublado
6:30 AM 57.2 ° F 55.4 ° F 94% 30.15 pul 6.2 mi NO 16.1 mph - N/A   Muy nublado
7:00 AM 57 ° F 54 ° F 87% 30.16 pul 16 mi NO 17.3 mph - -   Muy nublado
7:00 AM 57.2 ° F 55.4 ° F 94% 30.18 pul 6.2 mi NO 17.3 mph - N/A   Muy nublado
8:00 AM 57.2 ° F 55.4 ° F 94% 30.18 pul 6.2 mi ONO 17.3 mph - N/A   Muy nublado
9:00 AM 59.0 ° F 53.6 ° F 82% 30.18 pul 6.2 mi NNO 18.4 mph - N/A   Muy nublado
9:30 AM 60.8 ° F 53.6 ° F 77% 30.18 pul 6.2 mi NNO 19.6 mph - N/A   Muy nublado
10:00 AM 62.6 ° F 51.8 ° F 68% 30.18 pul 6.2 mi NO 19.6 mph - N/A   Muy nublado
10:30 AM 60.8 ° F 51.8 ° F 72% 30.18 pul 6.2 mi NO 20.7 mph - N/A   Muy nublado
11:00 AM 60.8 ° F 55.4 ° F 82% 30.18 pul 6.2 mi NO 19.6 mph 34.5 mph N/A   Muy nublado
11:30 AM 66.2 ° F 53.6 ° F 64% 30.18 pul 6.2 mi NO 20.7 mph 32.2 mph N/A   Nubes dispersas
12:00 PM 62.6 ° F 55.4 ° F 77% 30.21 pul 6.2 mi NO 21.9 mph - N/A   Muy nublado
12:30 PM 60.8 ° F 55.4 ° F 82% 30.21 pul 6.2 mi NO 19.6 mph - N/A   Muy nublado
1:00 PM 61 ° F 56 ° F 77% 30.16 pul 12 mi NO 23.0 mph - -   Muy nublado
1:00 PM 60.8 ° F 55.4 ° F 82% 30.18 pul 6.2 mi NO 20.7 mph - N/A   Muy nublado
1:30 PM 62.6 ° F 55.4 ° F 77% 30.18 pul 6.2 mi NO 23.0 mph - N/A   Muy nublado
2:00 PM 62.6 ° F 51.8 ° F 68% 30.18 pul 6.2 mi NO 26.5 mph - N/A   Nubes dispersas
2:30 PM 66.2 ° F 53.6 ° F 64% 30.18 pul 6.2 mi NO 27.6 mph - N/A   Nubes dispersas
3:30 PM 62.6 ° F 55.4 ° F 77% 30.15 pul 6.2 mi NO 25.3 mph - N/A   Muy nublado
4:00 PM 62 ° F 55 ° F 71% 30.12 pul 19 mi ONO 27.6 mph - -   Muy nublado
4:00 PM 62.6 ° F 55.4 ° F 77% 30.15 pul 6.2 mi NO 27.6 mph 39.1 mph N/A   Muy nublado
4:30 PM 62.6 ° F 55.4 ° F 77% 30.15 pul 6.2 mi NO 26.5 mph - N/A   Muy nublado
5:30 PM 60.8 ° F 55.4 ° F 82% 30.15 pul 6.2 mi NO 25.3 mph - N/A   Muy nublado
6:00 PM 60.8 ° F 55.4 ° F 82% 30.12 pul 6.2 mi NO 26.5 mph - N/A   Muy nublado
6:30 PM 60.8 ° F 55.4 ° F 82% 30.12 pul 6.2 mi ONO 29.9 mph - N/A   Muy nublado
7:00 PM 60 ° F 56 ° F 81% 30.12 pul 12 mi ONO 25.3 mph - -   Muy nublado
7:00 PM 59.0 ° F 55.4 ° F 88% 30.15 pul 6.2 mi NO 25.3 mph 38.0 mph N/A   Muy nublado
7:30 PM 59.0 ° F 55.4 ° F 88% 30.15 pul 6.2 mi NO 23.0 mph - N/A   Muy nublado
8:00 PM 60.8 ° F 53.6 ° F 77% 30.15 pul 6.2 mi ONO 25.3 mph - N/A   Muy nublado
8:30 PM 57.2 ° F 53.6 ° F 88% 30.15 pul 5.0 mi NO 29.9 mph - N/A Lluvia Lluvia débil
9:00 PM 59.0 ° F 57.2 ° F 94% 30.15 pul 5.6 mi NO 28.8 mph - N/A   Muy nublado
9:30 PM 59.0 ° F 57.2 ° F 94% 30.15 pul 5.6 mi ONO 21.9 mph 34.5 mph N/A   Muy nublado
10:00 PM 57.2 ° F 57.2 ° F 100% 30.15 pul 5.6 mi ONO 24.2 mph - N/A   Muy nublado
10:30 PM 57.2 ° F 55.4 ° F 94% 30.15 pul 5.6 mi NO 24.2 mph - N/A   Parcialmente nublado
11:00 PM 57.2 ° F 51.8 ° F 82% 30.15 pul 5.6 mi ONO 24.2 mph - N/A   Parcialmente nublado
11:30 PM 57.2 ° F 51.8 ° F 82% 30.15 pul 6.2 mi NO 25.3 mph - N/A   Nubes dispersas